Temp
55 55 54 54 54 54 54 55 55 55 58 57 57 57 57 57 57 57 56 56 55 55 55 56 56 56 55
52 51 50 53 53 52 51 51 52 53 55 56 56 56 56 55 55 55 54 54 53 53 53 53 53 53 54
50 53 51 50 49 50 49 49 49 50 53 54 55 55 54 54 54 53 52 52 52 51 50 51 51 51 52
48 48 49 49 47 46 47 47 47 48 49 51 53 54 54 54 53 51 51 51 51 50 50 49 49 49 50
45 46 46 45 43 47 45 47 48 46 46 46 48 49 51 52 51 49 49 50 49 49 49 49 48 48 49
42 42 44 46 47 46 45 44 42 45 43 43 45 46 48 49 50 50 49 48 48 47 47 47 47 47 47
42 43 43 45 45 43 44 44 44 46 41 40 43 42 46 46 49 49 48 47 46 46 46 46 46 46 47
44 44 45 47 46 45 43 43 44 39 40 38 36 39 39 39 46 48 47 46 45 45 44 44 45 45 45
46 46 46 47 47 44 40 39 38 38 37 36 34 34 35 35 38 46 46 45 45 45 44 44 44 44 43
41 43 45 46 47 45 41 37 39 34 35 35 32 33 32 33 35 37 40 44 44 44 44 42 42 39 39
39 40 40 41 41 42 40 38 36 36 37 35 32 32 32 30 32 33 36 39 38 40 43 41 41 41 35
35 35 36 37 38 38 37 36 37 35 37 34 32 33 32 30 30 32 32 34 34 33 33 39 41 41 43
33 34 35 36 34 34 33 33 32 32 33 34 33 32 32 31 30 31 32 32 32 32 29 31 30 33 30
33 34 35 34 34 33 32 32 32 30 31 32 32 32 32 32 32 30 31 30 32 30 30 30 33 34 35
32 32 33 33 33 33 32 32 31 31 29 30 31 32 32 32 31 31 31 30 31 30 30 29 29 32 34
32 32 32 32 33 32 32 31 31 31 30 29 29 29 30 31 34 30 30 30 30 30 31 28 28 31 33
31 31 32 32 33 32 31 31 31 32 31 30 29 30 28 26 29 33 29 29 29 29 29 29 29 30 33
MSLP
1011.28 1011.37 1011.44 1011.36 1011.22 1011.14 1011.08 1010.80 1010.78 1010.75 1010.54 1010.37 1010.30 1010.26 1010.46 1010.71 1011.08 1011.55 1011.87 1012.08 1012.36 1012.89 1012.64 1012.85 1013.28 1013.31 1013.04
1011.67 1011.63 1011.64 1011.43 1011.37 1011.20 1011.04 1010.74 1010.49 1010.24 1009.91 1009.81 1009.74 1009.83 1009.96 1010.14 1010.27 1010.60 1011.12 1011.60 1012.08 1012.46 1012.46 1012.40 1012.56 1012.73 1012.59
1011.78 1011.71 1011.41 1011.34 1011.12 1010.88 1010.54 1010.17 1009.91 1009.70 1009.67 1009.40 1009.23 1009.09 1009.18 1009.42 1009.80 1010.13 1010.32 1010.85 1011.40 1011.74 1011.96 1012.22 1012.27 1012.32 1012.46
1011.97 1011.82 1011.73 1011.39 1011.31 1011.02 1010.37 1010.08 1009.78 1009.71 1009.47 1009.09 1008.83 1008.49 1008.51 1008.85 1009.04 1009.68 1010.33 1010.65 1010.81 1011.29 1011.42 1011.50 1011.97 1012.15 1011.94
1012.13 1011.74 1011.49 1011.35 1011.16 1010.65 1010.21 1009.66 1009.28 1009.39 1009.08 1008.92 1008.83 1008.29 1007.91 1008.05 1008.41 1008.70 1009.09 1009.97 1010.28 1010.82 1010.68 1010.95 1011.63 1011.36 1011.49
1012.33 1011.88 1011.47 1011.09 1010.70 1010.24 1009.72 1009.30 1008.65 1008.70 1008.63 1008.12 1008.28 1007.74 1007.36 1007.10 1007.48 1008.00 1008.55 1009.25 1009.54 1010.20 1010.29 1010.29 1011.02 1011.04 1010.84
1012.16 1011.88 1011.44 1011.08 1010.64 1010.21 1009.74 1009.00 1008.25 1008.16 1008.48 1007.80 1007.73 1007.48 1007.29 1007.01 1006.72 1007.01 1007.72 1008.39 1009.16 1009.35 1009.80 1010.12 1010.31 1010.50 1010.41
1012.24 1011.86 1011.43 1010.88 1010.54 1010.06 1009.59 1008.86 1008.19 1008.10 1007.87 1007.57 1007.50 1007.09 1006.97 1007.05 1006.93 1006.87 1006.96 1008.00 1008.77 1009.17 1009.39 1009.78 1010.02 1010.11 1009.81
1011.91 1011.44 1010.88 1010.33 1009.82 1009.44 1009.10 1008.79 1007.85 1007.73 1007.62 1007.69 1007.43 1007.37 1007.29 1007.15 1006.99 1006.78 1007.27 1007.79 1008.31 1008.60 1009.22 1009.39 1009.93 1009.57 1009.52
1010.99 1010.49 1010.04 1009.60 1009.20 1009.08 1008.96 1008.39 1007.97 1007.44 1007.12 1007.53 1007.36 1007.37 1007.50 1007.25 1007.12 1007.08 1007.01 1007.02 1007.68 1008.17 1008.74 1009.41 1009.54 1009.35 1008.71
1011.03 1010.60 1009.95 1009.44 1009.10 1008.74 1008.65 1008.32 1007.78 1007.29 1006.73 1006.96 1007.19 1007.38 1007.36 1007.38 1007.36 1007.15 1007.17 1007.21 1007.58 1008.43 1008.81 1008.80 1009.24 1009.59 1009.41
1011.41 1010.68 1010.05 1009.53 1008.96 1008.48 1008.15 1007.90 1007.47 1007.11 1006.61 1006.52 1006.73 1007.00 1007.14 1007.47 1007.53 1007.63 1007.71 1007.99 1008.45 1008.60 1009.11 1008.51 1009.37 1009.37 1008.51
1011.29 1010.51 1009.92 1009.22 1008.72 1008.28 1007.99 1007.89 1007.56 1007.27 1006.84 1006.59 1006.62 1006.92 1007.07 1007.25 1007.42 1007.58 1007.72 1008.09 1008.30 1008.50 1008.64 1009.06 1009.45 1009.04 1008.84
1010.95 1010.44 1009.70 1009.04 1008.55 1008.23 1008.03 1007.82 1007.72 1007.60 1007.52 1007.12 1007.09 1007.10 1007.34 1007.36 1007.48 1007.76 1007.60 1008.09 1008.51 1008.86 1009.20 1009.64 1009.56 1009.35 1009.47
1010.78 1010.26 1009.65 1009.01 1008.40 1008.06 1007.96 1007.83 1007.86 1007.63 1007.74 1007.72 1007.56 1007.44 1007.38 1007.43 1007.61 1007.74 1008.03 1008.40 1008.88 1009.20 1009.50 1009.94 1009.90 1009.78 1009.72
1010.58 1010.20 1009.72 1009.11 1008.40 1007.91 1007.76 1007.66 1007.60 1007.46 1007.48 1007.74 1007.79 1007.73 1007.78 1008.02 1007.96 1008.17 1008.48 1008.76 1009.24 1009.20 1009.52 1009.87 1010.12 1010.17 1009.85
1010.56 1010.04 1009.44 1008.85 1008.19 1007.74 1007.54 1007.45 1007.21 1007.16 1007.23 1007.56 1007.63 1007.56 1007.75 1008.10 1008.67 1008.79 1008.83 1009.03 1009.43 1009.37 1009.89 1009.59 1010.35 1010.43 1010.29
Wind_Speed
1 1 3 4 5 5 7 8 8 19 23 21 21 20 20 19 17 16 16 14 12 14 12 12 14 15 15
3 2 3 3 5 7 7 6 8 13 20 21 20 20 20 19 18 18 16 15 14 14 12 12 12 13 14
8 5 3 2 4 6 8 9 7 13 18 21 20 22 22 21 20 19 18 18 17 14 12 11 12 13 15
8 7 6 3 3 8 11 5 9 7 12 15 15 20 22 22 19 18 16 17 17 15 13 9 12 13 14
8 8 7 5 5 5 8 9 9 5 7 8 9 8 10 19 16 21 21 20 17 16 11 9 12 11 14
8 10 12 10 8 8 9 9 10 4 5 9 7 10 8 10 18 21 22 21 18 15 12 9 10 13 14
10 9 11 11 11 12 12 11 11 6 5 8 5 9 8 8 17 21 22 19 16 14 10 9 9 13 14
11 12 13 12 12 11 12 12 10 3 3 6 1 4 2 2 12 17 19 18 15 13 10 9 9 11 14
19 21 23 23 18 10 8 9 9 5 4 3 2 2 1 2 3 14 16 17 16 13 10 7 8 11 11
12 13 13 12 17 10 8 9 10 3 4 4 3 3 2 1 3 4 6 14 14 13 11 7 7 4 4
9 9 10 10 9 7 7 7 8 8 3 4 2 2 1 1 1 1 3 4 4 6 10 6 5 4 4
8 8 7 7 8 8 7 6 5 7 4 4 2 3 2 2 2 1 1 3 3 2 3 4 6 6 5
9 8 7 8 9 7 3 3 3 4 4 1 1 2 1 2 2 1 3 2 2 2 2 2 1 3 3
7 9 8 6 7 3 3 2 2 2 4 4 1 2 2 2 1 4 2 3 4 2 2 2 2 3 3
7 9 8 8 7 2 2 2 3 1 0 2 4 5 5 3 2 2 3 3 2 3 3 2 2 2 3
8 8 8 8 7 3 2 3 4 2 2 2 2 2 1 4 12 3 2 2 3 2 2 2 2 2 4
7 8 7 8 9 5 3 4 4 3 2 3 3 1 2 2 2 12 2 2 3 4 1 3 3 1 4
Wind_Direction
238 258 251 261 266 245 256 259 256 244 243 234 231 224 205 201 201 205 211 215 221 237 244 259 273 282 287
312 279 242 279 277 286 270 254 254 253 247 245 234 218 208 205 201 205 209 212 219 230 243 251 263 274 286
296 290 265 260 279 271 259 255 245 247 255 251 242 219 210 211 212 209 204 207 214 222 233 252 267 274 284
302 306 309 294 281 291 288 274 272 263 253 248 249 233 220 218 213 212 213 213 213 223 225 241 263 279 284
299 293 292 287 270 272 280 284 281 241 254 248 245 243 225 218 216 202 199 213 214 227 224 240 263 273 278
301 299 301 300 297 288 281 282 287 201 236 257 229 238 232 212 212 207 203 207 205 219 219 228 263 277 270
296 295 304 308 308 306 300 288 272 258 211 264 202 238 234 236 211 200 195 202 211 208 215 235 252 271 272
308 302 301 304 295 290 291 288 288 267 203 255 183 242 200 221 237 204 188 194 201 201 205 233 253 273 282
303 299 294 293 285 288 286 292 291 260 197 244 207 247 276 223 216 218 198 196 198 192 212 225 261 279 280
305 299 295 304 308 290 286 281 286 277 215 198 176 155 267 232 210 219 194 198 198 191 202 211 265 272 309
318 311 311 311 307 295 278 277 285 269 215 173 178 169 191 331 316 324 204 201 171 190 188 189 247 297 263
306 299 299 298 303 302 292 286 266 266 242 174 176 172 154 149 198 149 122 172 162 139 197 155 246 268 3
312 311 309 307 306 302 288 317 2 358 5 15 113 129 131 160 135 149 119 98 84 107 63 95 313 11 23
315 314 308 306 306 300 298 322 300 331 8 20 32 125 144 108 110 166 127 150 142 106 95 67 54 46 54
318 313 310 313 309 290 282 292 267 270 78 11 49 64 60 51 96 99 105 91 145 143 116 104 17 42 57
312 309 310 307 305 291 260 266 280 220 159 146 161 114 89 50 32 95 82 112 115 118 96 106 67 12 55
308 298 300 302 312 295 268 264 267 240 160 159 190 166 158 104 49 25 88 121 128 90 66 63 108 56 84